Theta_e
298 298 298 299 300 301 302 303 303 301 299 299 298 300 301 302 303 303 304 303 300 300 298 297 295 296 292 291 290 289 285 284 282 280 281 282 283 282 282 283 282 282 282
298 298 298 299 299 299 301 302 299 300 297 298 296 296 297 300 300 300 301 301 298 298 296 296 295 295 292 290 289 286 285 283 282 279 280 280 281 282 282 282 281 281 281
297 297 297 297 297 298 298 298 296 297 294 293 293 294 293 296 297 297 299 299 296 298 297 294 295 292 289 287 286 285 285 283 282 281 278 279 279 281 279 280 280 280 281
296 296 295 296 297 297 296 296 295 294 294 292 292 293 293 292 292 295 295 296 295 295 294 293 293 288 289 285 284 284 283 283 281 281 278 278 278 279 280 278 278 280 279
294 294 295 296 295 294 293 292 291 291 293 291 290 290 290 289 290 289 291 293 292 292 291 290 290 288 288 286 285 283 284 284 281 279 278 277 277 278 278 278 278 279 279
291 290 292 291 290 290 289 289 289 288 288 287 286 288 286 288 291 292 291 289 289 289 287 286 286 284 286 287 288 287 287 283 281 280 278 278 278 279 279 279 278 277 276
286 287 287 286 286 287 288 287 287 287 286 285 285 284 285 285 290 291 291 288 288 288 287 284 283 284 284 285 287 287 287 287 286 282 280 280 279 279 280 279 279 278 277
284 284 284 285 285 285 284 285 285 285 284 284 284 283 284 283 289 290 290 287 285 286 285 284 283 282 284 284 284 283 283 284 284 283 284 283 282 281 282 282 280 279 278
285 284 283 283 284 284 284 283 282 280 278 279 280 281 280 281 288 289 289 286 284 283 283 283 283 282 285 286 283 282 281 282 285 286 285 285 286 285 283 280 276 275 273
284 284 283 282 281 282 283 283 281 277 280 279 279 282 282 282 286 288 288 285 283 281 282 282 283 283 286 287 283 281 280 281 282 283 283 284 284 285 285 281 278 275 274
282 281 281 281 280 279 278 277 275 275 277 280 281 281 282 282 283 287 288 284 282 280 280 280 282 286 287 287 285 282 283 283 284 282 281 281 282 282 282 281 280 278 273
279 279 279 278 280 281 273 273 275 280 280 280 280 279 280 280 283 285 288 287 284 280 280 281 282 286 287 288 285 286 288 284 282 279 279 278 278 278 278 278 278 276 275
276 277 277 276 278 276 276 279 280 280 279 278 278 278 278 279 281 285 287 287 284 281 281 282 284 286 287 288 287 287 284 281 280 278 277 277 278 278 277 275 274 273 271
273 274 274 275 275 274 279 279 280 279 278 278 278 278 278 279 280 282 284 284 283 282 283 283 284 285 286 286 284 285 284 281 279 279 278 278 277 276 274 273 270 268 266
273 273 274 272 271 274 274 274 274 275 278 276 277 278 277 277 279 283 284 282 282 281 280 281 282 282 283 282 282 283 283 282 280 280 278 275 275 274 272 271 269 266 265
277 279 279 273 274 277 278 279 283 283 283 283 283 278 275 281 283 285 286 285 284 284 279 278 279 279 279 280 279 278 279 279 280 278 277 275 273 272 271 269 266 265 264
277 276 278 277 278 277 277 277 275 281 285 286 285 284 283 282 283 285 286 286 286 285 278 280 280 280 279 279 279 278 277 277 275 276 275 274 273 272 269 267 266 264 263
273 279 277 277 279 278 278 278 278 277 276 276 280 282 286 285 284 285 286 286 283 284 278 278 279 280 278 278 277 276 274 273 272 271 271 271 269 268 265 266 265 263 263
274 274 277 277 278 278 277 277 276 275 274 274 275 278 277 283 284 285 286 282 279 278 278 277 278 277 276 275 274 273 272 270 268 267 265 265 265 265 263 265 265 263 260
273 276 277 277 276 276 276 276 275 274 272 272 273 273 273 274 272 272 273 274 273 273 273 272 271 270 268 265 262 262 261 261 260 262 261 263 263 265 263 262 262 259 258
270 272 273 272 272 273 273 273 272 271 270 269 271 275 275 269 267 267 266 265 266 267 267 266 264 263 261 259 258 259 260 261 260 260 260 261 260 257 259 261 257 255 253
270 270 270 269 269 269 269 269 269 268 268 267 266 267 271 265 264 263 262 260 259 259 258 255 254 254 255 255 256 257 257 257 257 258 258 257 256 253 253 252 253 252 250
268 268 267 266 267 267 266 266 266 266 265 264 264 264 263 262 262 261 259 258 258 257 256 255 255 253 252 252 253 255 256 255 256 253 252 251 250 250 249 250 250 250 251
265 265 265 265 264 264 264 263 263 263 262 261 260 260 260 259 258 258 258 257 257 255 254 254 252 250 249 247 244 244 246 247 245 248 249 248 248 249 251 251 254 255 256
263 263 262 262 262 261 261 261 260 259 259 259 258 258 257 258 257 255 254 254 253 253 253 251 248 248 248 248 247 246 246 253 247 247 246 249 250 252 253 254 254 253 254
261 261 260 260 260 259 258 258 257 257 257 257 257 256 256 256 255 255 252 252 252 251 249 248 248 248 248 248 248 250 251 257 253 253 248 251 253 251 252 251 251 251 253
Wind_Speed
6 6 7 7 7 7 9 10 11 8 10 11 11 12 13 13 12 12 14 12 15 15 14 14 16 14 9 10 10 10 9 6 4 1 2 2 10 11 9 7 7 6 5
6 6 7 7 7 8 10 10 7 10 8 10 10 11 12 12 12 13 15 13 14 16 15 15 16 11 13 11 10 13 10 5 5 5 2 2 5 11 9 9 5 4 4
6 6 7 8 7 9 8 6 7 8 8 8 9 11 10 12 12 12 14 14 13 15 14 15 15 13 13 9 10 9 8 5 3 4 3 2 2 7 5 4 4 4 4
6 7 8 9 9 8 7 7 7 8 8 9 10 12 12 12 12 13 12 13 12 13 12 12 13 14 15 13 11 12 10 8 5 6 4 5 3 2 4 5 3 3 3
7 7 10 9 7 6 7 7 7 7 8 8 8 10 9 9 8 10 11 11 11 12 9 10 11 13 14 15 10 12 14 9 8 7 4 4 3 4 9 4 4 3 3
9 9 9 8 7 8 7 7 7 7 7 6 7 9 9 8 13 16 13 10 11 11 10 9 7 9 15 21 21 23 19 15 14 8 3 6 6 4 4 4 3 4 3
8 8 8 8 8 8 8 7 8 8 6 8 7 7 9 8 14 16 19 9 9 10 9 8 7 7 11 12 19 22 21 24 19 11 11 7 6 7 8 6 7 4 3
7 6 6 7 9 8 7 7 7 5 6 6 7 8 8 7 15 16 16 11 8 9 10 11 11 11 13 13 12 11 11 13 11 6 8 6 7 8 8 7 7 4 1
10 7 5 6 9 8 8 7 6 4 3 4 4 6 7 6 13 14 11 7 8 7 8 9 10 11 17 21 13 13 11 7 9 13 13 12 9 14 12 7 4 4 3
10 11 10 7 5 6 6 7 3 3 5 2 4 5 6 6 12 13 13 5 7 6 6 8 14 13 22 22 12 13 12 9 9 8 8 10 13 12 17 9 7 5 3
10 10 8 9 9 6 4 2 2 3 4 3 4 2 4 5 6 14 17 6 6 5 6 6 7 20 22 23 18 12 14 11 12 7 6 6 7 7 5 6 7 6 4
8 9 9 7 6 5 4 5 1 2 0 2 3 4 2 3 7 11 16 14 11 6 5 5 6 17 19 23 17 20 18 14 7 6 6 6 5 5 5 5 5 4 2
7 8 7 8 7 5 4 5 3 1 2 2 3 1 3 2 3 9 12 14 13 5 4 6 11 17 17 17 17 20 11 6 7 6 7 5 5 5 6 5 5 6 5
7 6 5 5 6 4 4 2 2 2 3 2 2 1 1 2 1 0 1 7 9 5 10 8 10 12 12 9 9 9 5 6 5 5 3 3 4 5 4 4 3 3 3
6 5 4 3 3 4 4 3 2 3 3 2 2 3 3 2 2 3 5 5 5 6 5 3 4 5 8 6 5 5 5 5 4 3 4 5 5 5 3 4 3 2 3
9 7 6 3 3 3 3 3 4 6 6 6 5 3 1 5 6 6 11 12 12 12 2 3 4 3 3 3 3 2 2 3 3 4 5 6 7 7 7 4 3 3 4
10 8 5 4 2 1 2 2 2 4 3 5 3 3 4 4 6 8 9 13 13 13 2 3 4 5 3 3 3 3 3 3 3 4 4 5 5 5 7 5 4 3 3
10 11 4 3 3 2 2 1 1 2 2 3 8 12 3 4 5 6 10 11 5 7 2 2 2 3 4 4 3 3 2 3 2 2 3 4 5 5 3 4 5 4 3
7 3 2 1 1 1 1 2 2 3 3 3 3 7 10 12 10 4 3 2 2 3 2 2 1 2 2 3 2 2 3 3 3 3 2 3 4 4 3 4 4 6 5
4 3 3 3 3 3 3 3 3 4 4 4 5 5 4 6 6 6 6 6 5 5 4 4 4 4 3 3 2 2 2 2 2 2 2 2 3 3 3 4 5 4 4
2 2 5 5 5 3 3 4 4 4 4 5 6 8 14 6 5 6 6 6 6 6 5 4 4 4 3 3 2 2 3 2 2 2 2 2 3 2 2 3 3 3 3
2 3 5 5 4 4 4 5 5 5 5 5 4 7 14 6 5 5 5 5 4 4 3 2 3 2 1 1 2 3 2 2 2 2 2 2 3 2 3 2 2 3 3
3 5 5 5 5 6 6 6 5 5 5 5 5 5 5 5 4 4 4 3 3 3 3 3 3 2 2 3 3 1 2 2 2 3 3 3 3 3 3 3 3 2 3
5 6 5 6 5 5 5 5 5 7 5 5 4 4 4 3 4 4 3 3 3 3 3 3 3 4 3 3 2 1 0 1 2 3 5 4 3 3 3 2 3 4 3
6 6 6 6 6 5 5 5 5 4 4 4 4 3 3 2 3 2 2 2 2 3 3 3 2 2 3 4 4 4 4 5 2 4 3 4 5 5 3 3 3 2 3
6 7 6 5 5 5 4 4 4 4 3 3 3 3 2 2 2 2 2 3 2 2 3 3 3 5 6 5 6 6 5 6 5 5 4 3 4 3 3 4 5 2 3
Wind_Direction
233 235 229 232 222 215 218 220 218 210 201 206 204 212 219 222 219 222 230 226 218 216 212 211 213 205 199 199 195 194 192 168 139 154 141 143 180 186 186 182 177 187 212
242 232 232 229 223 229 234 234 218 222 209 212 206 210 213 217 215 217 224 226 222 219 212 210 213 210 207 200 197 193 188 163 134 158 134 155 180 191 174 172 182 197 195
275 259 257 256 247 245 245 236 218 217 206 205 199 210 210 215 215 220 226 228 222 223 220 213 214 201 210 196 193 182 167 144 116 132 143 155 139 173 138 139 176 203 205
289 269 264 256 248 242 237 233 228 219 213 209 208 211 213 211 211 212 217 226 223 224 220 215 215 201 204 188 176 164 154 150 135 158 172 161 136 132 139 165 182 200 205
313 292 275 284 281 270 261 256 247 231 232 220 211 221 215 207 208 211 213 220 222 227 220 213 211 206 199 184 170 168 163 162 159 173 157 148 138 144 188 166 178 135 228
333 315 308 301 292 270 264 260 259 253 243 224 219 218 215 224 221 212 209 218 219 218 214 211 196 181 184 185 184 176 168 167 173 175 170 159 174 141 135 153 130 170 213
311 306 303 301 289 278 275 270 253 243 223 222 221 214 227 223 221 220 218 217 222 223 214 191 179 183 178 175 177 169 175 185 182 178 161 178 155 166 150 145 179 174 179
301 294 300 305 300 296 288 272 265 243 227 217 218 214 219 220 226 224 221 216 214 207 196 190 186 176 180 169 167 173 178 189 181 160 168 149 188 155 157 157 177 158 92
307 305 300 306 307 305 299 288 279 265 231 214 208 214 219 227 230 228 219 200 219 205 192 185 181 177 181 175 168 162 163 147 150 148 129 166 153 162 149 129 157 147 201
314 314 311 294 269 286 291 304 289 275 262 228 225 223 215 220 234 235 224 194 207 189 180 183 179 176 182 178 169 164 167 169 157 145 155 169 171 175 172 180 163 178 142
311 308 306 308 301 278 269 238 252 285 304 290 272 251 228 213 232 236 226 190 199 180 178 171 188 191 186 181 169 172 181 164 174 168 154 160 177 179 180 169 174 173 172
302 302 306 300 299 309 300 298 241 187 242 313 303 303 310 283 237 248 233 190 184 168 185 174 182 200 192 184 168 183 182 159 144 146 167 184 186 192 173 155 151 128 90
309 304 306 314 312 326 307 304 313 305 118 229 239 221 298 292 284 253 241 186 176 150 162 182 184 192 194 185 173 181 149 133 157 163 182 175 186 166 131 108 87 100 79
293 294 294 301 306 311 303 287 270 275 267 244 234 232 256 265 273 31 218 144 170 166 181 185 184 181 181 160 163 169 163 159 166 177 141 139 130 140 142 134 136 127 111
285 280 289 286 283 298 280 249 254 265 243 248 240 223 198 211 236 212 147 139 150 166 147 145 171 155 151 137 140 151 160 157 161 159 149 161 162 157 148 144 119 125 154
296 283 280 255 253 263 272 302 284 269 263 264 265 194 261 246 214 205 161 158 165 169 133 158 149 153 115 125 126 115 91 156 171 173 169 173 174 173 160 150 124 147 175
286 274 257 246 233 241 290 310 321 344 8 262 223 215 205 240 192 191 182 176 174 172 150 159 153 160 139 123 146 166 182 185 144 172 175 181 169 164 156 161 158 146 168
277 264 232 221 217 204 234 219 75 36 14 355 9 33 345 128 164 182 187 175 180 172 95 124 134 137 142 155 168 175 155 148 145 140 156 160 150 152 137 165 173 160 169
285 258 210 197 202 197 137 75 62 72 50 19 5 25 11 37 66 65 162 67 80 55 57 77 82 117 118 112 127 144 163 169 155 141 156 155 150 139 147 160 160 169 156
298 37 74 76 58 44 61 83 66 69 63 40 35 19 359 39 38 32 30 41 54 54 51 61 49 49 48 77 102 109 98 96 111 125 130 129 132 158 162 163 168 161 187
334 50 89 78 63 43 78 87 79 82 79 57 39 46 60 67 55 49 45 36 34 33 32 36 33 36 37 46 62 73 74 101 116 115 120 122 136 164 152 168 153 154 138
22 59 69 76 73 67 64 70 75 76 65 60 42 33 56 59 58 54 56 52 44 47 38 63 64 53 49 104 120 110 136 154 152 142 157 160 170 150 139 144 158 152 143
42 58 64 69 72 78 68 60 64 65 68 63 53 49 43 46 48 50 54 39 35 40 28 36 50 35 7 23 31 72 142 224 231 170 174 175 169 165 156 165 155 144 158
41 61 71 67 62 65 67 69 70 71 79 75 66 59 54 46 43 41 32 19 23 21 27 20 23 21 356 356 359 1 215 225 183 191 172 159 178 164 149 161 170 189 181
37 52 57 58 61 63 72 67 65 62 56 54 52 49 38 35 49 27 1 8 7 5 359 339 329 320 309 306 299 293 285 311 194 186 161 150 170 181 179 191 185 169 165
36 44 47 50 53 46 47 53 49 48 44 39 38 29 16 18 5 351 349 348 335 328 311 290 285 284 282 270 269 265 256 256 243 206 166 164 187 187 170 181 188 172 177